Regional Weather Roundup
Issued by NWS

Home | Current Version | Previous Version | Graphics & Text | Print | Product List | Glossary On
Versions: 1 2 3 4 5 6 7 8 9 10 11 12 13 14 15 16 17 18 19 20 21 22 23 24 25 26 27 28 29 30 31 32 33 34 35 36 37 38 39 40 41 42 43 44 45 46 47 48 49 50
389
ASUS43 KBIS 290710
RWRND

NORTH DAKOTA REGIONAL WEATHER ROUNDUP
NATIONAL WEATHER SERVICE BISMARCK ND
200 AM CDT FRI JUL 29 2016

NOTE: "FAIR" INDICATES FEW OR NO CLOUDS BELOW 12,000 FEET WITH NO
SIGNIFICANT WEATHER AND/OR OBSTRUCTIONS TO VISIBILITY.


NDZ001>003-009>011-017-290800-
NORTHWEST NORTH DAKOTA

CITY           SKY/WX    TMP DP  RH WIND       PRES   REMARKS
WILLISTON      CLEAR     55  52  89 CALM      30.13S
MINOT          CLEAR     61  55  81 SW7       30.12S
MINOT AFB      CLEAR     51  48  90 SW6       30.11S
$$

NDZ018>021-031>035-040>046-290800-
SOUTHWEST NORTH DAKOTA

CITY           SKY/WX    TMP DP  RH WIND       PRES   REMARKS
BISMARCK       MOCLDY    64  57  78 NE5       30.12S
DICKINSON      CLOUDY    58  57  97 CALM      30.14S
GARRISON         N/A     57  56  96 NW5       30.13S
HETTINGER ARPT FOG       53  52  96 CALM      30.17S VSB 1/4
$$

NDZ004>008-012>016-024-026-027-054-290800-
NORTHEAST NORTH DAKOTA

CITY           SKY/WX    TMP DP  RH WIND       PRES   REMARKS
GRAND FORKS    CLEAR     59  54  83 N3        30.09F
GRND FRKS AFB  CLEAR     55  53  95 CALM      30.10F
DEVILS LAKE    CLEAR     57  55  93 E6        30.13F
$$

NDZ022-023-025-028>030-036>039-047>053-290800-
SOUTHEAST NORTH DAKOTA

CITY           SKY/WX    TMP DP  RH WIND       PRES   REMARKS
FARGO          CLOUDY    63  57  81 N5        30.10R
JAMESTOWN      PTCLDY    62  59  90 E3        30.11S
$$





USA.gov is the U.S. government's official web portal to all federal, state and local government web resources and services.